Regional Weather Roundup
Issued by NWS State College, PA

Home | Current Version | Previous Version | Text Only | Print | Product List | Glossary On
Versions: 1 2 3 4 5 6 7 8 9 10 11 12 13 14 15 16 17 18 19 20 21 22 23 24 25 26 27 28 29 30 31 32 33 34 35 36 37 38 39 40 41 42 43 44 45 46 47 48 49 50
000
ASUS41 KCTP 190403
RWRCTP

REGIONAL WEATHER ROUNDUP
NATIONAL WEATHER SERVICE STATE COLLEGE PA
1100 PM EST THU JAN 18 2018

Note: "fair" indicates few or no clouds below 12,000 feet with no
significant weather and/or obstructions to visibility.

* = STATION THAT DOES NOT REPORT PRECIPITATION /E.G. RAIN...SNOW...ETC/
    THUNDER OR FOG.

PAZ002>004-007>009-013>016-020>023-029>032-190500-
WESTERN PENNSYLVANIA

CITY           SKY/WX    TMP DP  RH WIND       PRES   REMARKS
ERIE           FAIR      26  12  55 S22G30    30.00F WCI  12
MEADVILLE      FAIR      22  11  62 SW13      30.01F WCI  10
FRANKLIN*      FAIR      20  11  68 SW12G20   30.02  WCI   8
NEW CASTLE     FAIR      22  13  68 SW7       30.09F WCI  13
BEAVER COUNTY  NOT AVBL
BUTLER*        FAIR      21  11  65 SW12G18   30.09F WCI   9
PITTSBURGH INT FAIR      25  10  53 SW9G18    30.11F
PITTSBURGH     FAIR      23   8  52 SW16      30.11F WCI  10
INDIANA*       CLEAR     21  10  63 SW10G21   30.13S WCI  10
LATROBE        FAIR      25  10  54 S18       30.14F WCI  11
WASHINGTON CO* FAIR      25  11  55 SW15G23   30.17F WCI  13
$$

PAZ004>006-010>012-017>019-024>028-033>037-041-042-045-046-049>053-190500-
CENTRAL PENNSYLVANIA

CITY           SKY/WX    TMP DP  RH WIND       PRES   REMARKS
BRADFORD       FAIR      18  10  71 SW10G21   29.94F WCI   6
DUBOIS         FAIR      20   9  62 SW16G23   30.01F WCI   6
CLEARFIELD     FAIR      23  10  57 SW13      30.04S WCI  11
JOHNSTOWN      FAIR      23  10  57 SW18G28   30.03F WCI   9
ALTOONA        FAIR      29  13  51 W21       30.03F
STATE COLLEGE  FAIR      25  11  54 S3        30.04F
WILLIAMSPORT   FAIR      13  10  88 CALM      30.06F
SELINSGROVE    FAIR      10   8  92 CALM      30.08F
FT INDIANTOWN  FAIR      21  12  68 CALM      30.07S
CAPITAL CITY   FAIR      23  14  68 CALM      30.08F
HARRISBURG     FAIR      20  13  74 CALM      30.08F
YORK           FAIR      13  10  88 CALM      30.08F
$$

PAZ038>040-043-044-047-048-054-055-060>062-067>071-190500-
EASTERN PENNSYLVANIA

CITY           SKY/WX    TMP DP  RH WIND       PRES   REMARKS
SCRANTON       FAIR      15  10  80 S3        30.02F
MOUNT POCONO   FAIR      12   8  84 CALM      29.94F
ALLENTOWN      FAIR      16   7  67 SW3       30.07F
QUAKERTOWN*    FAIR      14  10  85 CALM      30.08S
READING        FAIR      22  13  68 CALM      30.08S
LANCASTER      FAIR      25  14  63 CALM      30.08F
COATESVILLE    FAIR      25  12  58 NW3       30.08F
POTTSTOWN      FAIR      15   9  76 CALM      30.10S
BLUE BELL      FAIR      19  14  79 CALM      30.11S
DOYLESTOWN     FAIR      21  11  65 W3        30.08S
WILLOW GROVE   NOT AVBL
NORTH PHILA    FAIR      28  13  53 CALM      30.12S
PHILADELPHIA   FAIR      28  11  48 CALM      30.12S
$$




USA.gov is the U.S. government's official web portal to all federal, state and local government web resources and services.